Pontiac, MI

11:12 AM EDT on April 23, 2018 (GMT -0400)
Oakland County International

Weather History for KPTK - December, 2012

Change the Weather History Date:

Wednesday, December 5, 2012

  Actual Average Record
Temperature  
Mean Temperature 30 °F -  
Max Temperature 37 °F 38 °F 66 °F (2001)
Min Temperature 24 °F 26 °F 12 °F (2000)
Degree Days  
Heating Degree Days 34    
Moisture  
Dew Point 20 °F    
Average Humidity 66    
Maximum Humidity 81    
Minimum Humidity 52    
Precipitation  
Precipitation 0.00 in - - ()
Sea Level Pressure  
Sea Level Pressure 30.34 in    
Wind  
Wind Speed 10 mph (NNW)    
Max Wind Speed 16 mph    
Max Gust Speed 24 mph    
Visibility 10 miles    
Events      
Averages and records for this station are not official NWS values.
T = Trace of Precipitation, MM = Missing Value Source: NWS Daily Summary

Daily Weather History Graph

Daily Weather History Graph

Search for Another Location

Airport or City:

Astronomy

Dec. 05, 2012 Rise Set
Actual Time 7:48 AM EST 5:00 PM EST
Civil Twilight 7:16 AM EST 5:31 PM EST
Nautical Twilight 6:41 AM EST 6:07 PM EST
Astronomical Twilight 6:07 AM EST 6:41 PM EST
Moon 11:55 PM EST (12/5) 12:05 PM EST (12/5)
Length of Visible Light 10h 14m
Length of Day
9h 11m
Waning Gibbous, 60% of the Moon is Illuminated
Dec 5
Waning Gibbous
Dec 6
Last Quarter
Dec 13
New
Dec 20
First Quarter
Dec 28
Full

Hourly Weather History & Observations

Time (EST) Temp. Windchill Dew Point Humidity Pressure Visibility Wind Dir Wind Speed Gust Speed Precip Events Conditions
12:53 AM 37.0 °F 27.7 °F 28.0 °F 70% 30.14 in 10.0 mi NW 16.1 mph - N/A   Clear
1:53 AM 36.0 °F 28.5 °F 27.0 °F 70% 30.17 in 10.0 mi WNW 10.4 mph - N/A   Clear
2:53 AM 34.0 °F 25.5 °F 27.0 °F 75% 30.19 in 10.0 mi NW 11.5 mph - N/A   Clear
3:53 AM 33.1 °F 23.0 °F 25.0 °F 72% 30.21 in 10.0 mi NW 15.0 mph - N/A   Clear
4:53 AM 30.0 °F 20.5 °F 19.9 °F 66% 30.26 in 10.0 mi WNW 11.5 mph - N/A   Clear
5:53 AM 28.0 °F 18.6 °F 19.0 °F 69% 30.29 in 10.0 mi NW 10.4 mph 19.6 mph N/A   Mostly Cloudy
6:53 AM 27.0 °F 16.1 °F 18.0 °F 69% 30.31 in 10.0 mi NW 12.7 mph - N/A   Mostly Cloudy
7:53 AM 27.0 °F 16.1 °F 17.1 °F 66% 30.34 in 10.0 mi NW 12.7 mph - N/A   Scattered Clouds
9:53 AM 30.9 °F 20.7 °F 18.0 °F 59% 30.37 in 10.0 mi NW 13.8 mph 19.6 mph N/A   Scattered Clouds
10:53 AM 33.1 °F 22.6 °F 19.0 °F 56% 30.38 in 10.0 mi NW 16.1 mph 24.2 mph N/A   Scattered Clouds
11:53 AM 34.0 °F 24.2 °F 19.0 °F 54% 30.38 in 10.0 mi NNW 15.0 mph - N/A   Scattered Clouds
12:53 PM 35.1 °F 27.4 °F 19.0 °F 52% 30.37 in 10.0 mi North 10.4 mph - N/A   Mostly Cloudy
1:53 PM 34.0 °F 26.0 °F 19.0 °F 54% 30.37 in 10.0 mi North 10.4 mph - N/A   Mostly Cloudy
2:53 PM 35.1 °F 30.1 °F 19.9 °F 54% 30.38 in 10.0 mi NNE 5.8 mph - N/A   Mostly Cloudy
3:53 PM 34.0 °F 28.0 °F 19.0 °F 54% 30.39 in 10.0 mi NNE 6.9 mph - N/A   Mostly Cloudy
4:53 PM 33.1 °F - 19.0 °F 56% 30.40 in 10.0 mi Calm Calm - N/A   Mostly Cloudy
5:53 PM 28.9 °F - 19.0 °F 67% 30.40 in 10.0 mi Calm Calm - N/A   Mostly Cloudy
6:53 PM 28.0 °F 21.7 °F 19.9 °F 72% 30.40 in 10.0 mi East 5.8 mph - N/A   Partly Cloudy
7:53 PM 28.0 °F 22.8 °F 19.9 °F 72% 30.40 in 10.0 mi East 4.6 mph - N/A   Partly Cloudy
8:53 PM 27.0 °F - 19.9 °F 75% 30.39 in 10.0 mi Calm Calm - N/A   Partly Cloudy
9:53 PM 27.0 °F 23.0 °F 19.0 °F 72% 30.40 in 10.0 mi East 3.5 mph - N/A   Clear
10:53 PM 26.1 °F 21.9 °F 19.0 °F 75% 30.39 in 10.0 mi ESE 3.5 mph - N/A   Mostly Cloudy
11:34 PM 24.8 °F - 19.4 °F 80% 30.35 in 10.0 mi Calm Calm - N/A   Mostly Cloudy
11:53 PM 24.1 °F - 19.0 °F 81% 30.39 in 10.0 mi Calm Calm - N/A   Mostly Cloudy